Location: Neuvy Saint Sepulchre
(46.5953°N, 1.8122°E)
Time: 15:54:01
(UTC+02:00)

ISS - Pass Details

Date: 07 May 2026
Orbit: 414 x 424 km, 51.6° (Epoch: 21 May)

Event Time Altitude Azimuth Distance (km) Brightness Sun altitude
Exits shadow 04:52:29 - 295° (WNW) 2,133 -0.4 -14.4°
Reaches altitude 10° 04:54:02 10° 294° (WNW) 1,498 -1.2 -14.2°
Maximum altitude 04:57:23 70° 210° (SSW) 448 -3.9 -13.8°
Drops below altitude 10° 05:00:44 10° 126° (SE) 1,497 -0.8 -13.4°
Sets 05:02:49 0° 124° (SE) 2,360 0.2 -13.1°
